Regional Weather Roundup
Issued by NWS Upton, NY

Home | Current Version | Previous Version | Text Only | Print | Product List | Glossary On
Versions: 1 2 3 4 5 6 7 8 9 10 11 12 13 14 15 16 17 18 19 20 21 22 23 24 25 26 27 28 29 30 31 32 33 34 35 36 37 38 39 40 41 42 43 44 45 46 47 48 49 50
000
ASUS41 KOKX 110304
RWROKX

REGIONAL WEATHER ROUNDUP
NATIONAL WEATHER SERVICE NEW YORK NY
1000 PM EST WED FEB 10 2016

NOTE: "FAIR" INDICATES FEW OR NO CLOUDS BELOW 12,000 FEET WITH NO
SIGNIFICANT WEATHER AND/OR OBSTRUCTIONS TO VISIBILITY.

NYZ071-072-176-178-NJZ106-104-110400-
NEW YORK CITY METRO AREA


CITY           SKY/WX    TMP DP  RH WIND       PRES   REMARKS
CENTRAL PARK   MOCLDY    32  16  51 VRB3      29.76R
LAGUARDIA APRT PTCLDY    33  16  49 W14       29.74R WCI  23
KENNEDY INTL   MOCLDY    33  17  51 W15G22    29.76R WCI  23
NEWARK/LIBERTY MOCLDY    31  15  52 W15       29.75R WCI  20
BRNX BOT. GARD   N/A     32  18  55 W14       29.75R WCI  22
TETERBORO      CLOUDY    31  16  54 W9        29.74R WCI  23
$$

NYZ177-179-078>081-110400-
LONG ISLAND NEW YORK

CITY           SKY/WX    TMP DP  RH WIND       PRES   REMARKS
FARMINGDALE    CLEAR     32  17  54 W12       29.73R WCI  23
ISLIP          PTCLDY    30  17  58 W10       29.70R WCI  21
SHIRLEY        CLEAR     31  18  58 W8        29.72R WCI  23
RIVERHEAD        N/A     32  19  59 NW5       29.68R WCI  27
WESTHAMPTON    CLEAR     28  18  66 W9        29.72R WCI  19
EAST HAMPTON   FAIR      29  22  74 W5        29.69R WCI  24
MONTAUK POINT    N/A     36  23  59 W13G18    29.69R WCI  27
$$

NYZ052-065-067-110400-
HUDSON VALLEY

CITY           SKY/WX    TMP DP  RH WIND       PRES   REMARKS
WHITE PLAINS   MOCLDY    31  17  56 W7        29.69R WCI  24
NEWBURGH       MOCLDY    30  21  69 W14G29    29.70R WCI  20
MONTGOMERY     CLOUDY    32  17  54 W10       29.69S WCI  24
POUGHKEEPSIE   CLOUDY    34  17  50 NW6       29.70R WCI  29
ALBANY         PTCLDY    28  15  58 NW13      29.69R WCI  17
$$

NJZ001-105-106-008-010-013-015-019>022-104-110400-
NEW JERSEY

CITY           SKY/WX    TMP DP  RH WIND       PRES   REMARKS
NEWARK/LIBERTY MOCLDY    31  15  52 W15       29.75R WCI  20
TETERBORO      CLOUDY    31  16  54 W9        29.74R WCI  23
CALDWELL       CLOUDY    31  15  52 W7        29.75R WCI  24
MORRISTOWN     MOCLDY    30  18  59 NW13G22   29.76R WCI  20
SOMERVILLE     CLOUDY    30  15  53 VRB6      29.76R WCI  24
SUSSEX         CLOUDY    30  17  58 SW6       29.72R WCI  24
ANDOVER          N/A     28  14  55 VRB5      29.73R WCI  23
TRENTON        CLOUDY    30  13  49 W12       29.79R WCI  20
MILLVILLE      CLOUDY    30  16  56 W12       29.83R WCI  20
ATLANTIC CITY  PTCLDY    30  10  43 W12       29.81R WCI  20
WRIGHTSTOWN    CLOUDY    30  17  59 NW13      29.77R WCI  20
TOMS RIVER     CLOUDY    30  14  51 W12       29.79R WCI  21
BELMAR         MOCLDY    30  12  47 W10G17    29.76S WCI  21
$$

PAZ047>061-062-071-110400-
EASTERN PENNSYLVANIA

CITY           SKY/WX    TMP DP  RH WIND       PRES   REMARKS
PHILADELPHIA   MOCLDY    31  11  43 W18G25    29.84R WCI  19
ALLENTOWN      CLOUDY    27  12  53 W15G22    29.79R WCI  15
SCRANTON       CLOUDY    24  15  68 SW14      29.73R WCI  12
$$

CTZ002-004>006-009-010-012-RIZ004-006-007-MAZ004-011-015-110400-
SOUTHERN NEW ENGLAND
 IN CT

CITY           SKY/WX    TMP DP  RH WIND       PRES   REMARKS
BRADLEY INTL   PTCLDY    29  19  66 NW13      29.67R WCI  19
HARTFORD       PTCLDY    30  23  75 W3        29.69R
DANBURY        CLOUDY    30  18  60 W6        29.69S WCI  24
WTRBRY/OXFORD  MOCLDY    28  12  50 NW5       29.67S WCI  23
BRIDGEPORT     PTCLDY    32  21  64 W6        29.70R WCI  26
MERIDEN        PTCLDY    24  19  81 N3        29.69R
NEW HAVEN      CLEAR     33  21  61 W6        29.69S WCI  28
CHESTER        FAIR      32  19  59 W6        29.67S WCI  26
GROTON         CLEAR     32  21  64 NW7       29.67R WCI  26
WILLIMANTIC    CLEAR     30  24  78 CALM      29.67R

 IN RI

CITY           SKY/WX    TMP DP  RH WIND       PRES   REMARKS
PROVIDENCE     MOCLDY    31  24  75 W7        29.66S WCI  24
BLOCK ISLAND   PTCLDY    36  21  55 W13G23    29.66R WCI  27
WESTERLY       CLEAR     30  23  75 CALM      29.68R

 IN MA

CITY           SKY/WX    TMP DP  RH WIND       PRES   REMARKS
BOSTON         PTCLDY    33  24  69 W9G18     29.63S WCI  25
WORCESTER      CLEAR     25  20  81 W9        29.60S WCI  15
WESTFIELD      PTCLDY    28  18  66 NW6       29.67R WCI  22
PROVINCETOWN   CLEAR     34  28  79 W15       29.64R WCI  24
NANTUCKET      PTCLDY    35  29  78 W9        29.65S WCI  28
$$

ANZ330-335-338-340-345-350-353-355-110400-
COASTAL MARINE OBSERVATIONS


STATION/POSITION TIME  SKY/WX   TEMP    WIND        PRES    VSBY  WAVE
                                AIR SEA DIR/SP/G                  HT/PER
                 (UTC)          (F)     (DEG/KT/KT) (MB)    (MI)  (FT/S)
NY HARB ENTRANCE 0150            34 43  270/ 23/ 27 1006.1          5/ 4
4S FIRE IS       NOT AVBL
20S FIRE ISLAND  0150            35 44  280/ 21/ 27 1006.2          7/ 6
GREAT SOUTH BAY  NOT AVBL
23SW MTP         0250            38 45  270/ 19/ 25 1004.8          7/12
HUDSON CANYON    0150            38 48              1006.9          8/ 7
KINGS POINT      0200            33 38                N/A
EXECUTION ROCKS  NOT AVBL
CENTRAL LI SOUND 0215            37     290/ 17/ 21   N/A           2/ 4
EASTERN LI SOUND 0200            38 41  290/ 16/ 21   N/A
ROBBINS REEF     0200            32                   N/A
$$


>>>>>>>>>>>>>>>>>>>>>>>>>>>> KEY <<<<<<<<<<<<<<<<<<<<<<<<<<<
>                                                          <
>     SKY/WX - SKY CONDITION/PRESENT WEATHER               <
>     TMP    - TEMPERATURE IN FAHRENHEIT                   <
>     DP     - DEWPOINT IN FAHRENHEIT                      <
>     RH     - RELATIVE HUMIDITY IN PERCENT                <
>     WIND   - DIRECTION AND SPEED IN MPH                  <
>     PRES   - MEAN SEA LEVEL PRESSURE IN INCHES OF HG     <
>     WCI    - WIND CHILL INDEX                            <
>     VSB    - VISIBILITY IN MILES                         <
>     HX     - HEAT INDEX                                  <
>     TC     - TEMPERATURE IN CELSIUS                      <
>     VRB    - VARIABLE WIND DIRECTION                     <
>                                                          <
>>>>>>>>>>>>>>>>>>>>>>>>>>>> KEY <<<<<<<<<<<<<<<<<<<<<<<<<<<





USA.gov is the U.S. government's official web portal to all federal, state and local government web resources and services.